logo
Προσγείωση
Short final
Εισιτήριο
Runway
Cabin view Aegean
Olympic Air A319
Slider
Οι νεότερες φωτογραφίες των μελών μας
Etihad Regional operated for Alitalia Catania International Catania International Tus Airways SE - LTU Tus Airways cockpit snack friendly pilots at Milos cabin DHC-8-100 get ready at Milos airport 
Το δικό σου φόρουμ... Οι «δικές» σου αεροπορικές εταιρείες...
✈ Στο μεγαλύτερο ελληνόφωνο αεροπορικό φόρουμ θα βρεις αυτό που ψάχνεις. Για aviation fans και aviation professionals. Για μικρούς και μεγάλους. Για όλους! Απ' ευθείας στο φόρουμ!
Οι νεότερες δημοσιεύσεις στο φόρουμ μας
✈ Θέλεις να μάθεις για τις ελληνικές εταιρείες; Για, αυτές που θα συναντήσεις σήμερα σε κάποιο ελληνικό ή ξένο αεροδρόμιο; Ή και για αυτές που πλέον ... δεν υπάρχουν άλλο; Εδώ είσαι σωστά! Απ' ευθείας στις αεροπορικές εταιρείες!
Τα «δικά» σου αεροσκάφη...
✈ Θέλεις να μάθεις ποιά αεροσκάφη χρησιμοποιούν ή χρησιμοποιούσαν οι ελληνικές εταιρείες; Να μάθεις πότε κατασκευάστηκαν και από πότε πετούν με τα χρώματα της εταιρείας; Εδώ είσαι σωστά! Απ' ευθείας στο ελληνικό κατάλογο αεροσκαφών!
Τα «δικά» σου αεροδρόμια...
✈ Θέλεις να ενημερωθείς για τα ελληνικά αεροδρόμια; Να διαβάσεις τα τελευταία μετεωρολογικά μηνύματα METAR και TAF; Να μάθεις πόσοι επιβάτες χρησιμοποίησαν τα τελευταία 20 χρόνια τα αεροδρόμια μας; Εδώ είσαι σωστά! Απ' ευθείας στο ελληνικά αεροδρόμια!
Π.χ. το τελευταίο METAR του «Ελ. Βενιζέλος»:
METAR: LGAV 280450Z 36009KT CAVOK 24/12 Q1017 NOSIG